Jackson, Tennessee, United States (38301)
Lat: 35.61N, Lon: 88.81W
Wx Zone: TNZ052
Local Info
Past Weather Observations for Saturday, October 18, 2014

NOTE: This archive is for the closest National Weather Service station to Jackson. Information may differ from the station used for current weather conditions.

Click here for Long-term Archive

Time Weather Temperature Dewpoint Humidity Pressure Winds Precip Visibility
23:53
Clear
46°F / 8°C 43°F / 6°C 87% 30.18 in
(1022 mb)
Calm - 10SM
22:53
Clear
48°F / 9°C 43°F / 6°C 82% 30.18 in
(1022 mb)
NNE 3.5 mph
(NNE 6 kph)
- 10SM
21:53
Clear
48°F / 9°C 45°F / 7°C 87% 30.18 in
(1022 mb)
NE 4.6 mph
(NE 7 kph)
- 10SM
20:53
Clear
52°F / 11°C 45°F / 7°C 77% 30.15 in
(1021 mb)
NE 3.5 mph
(NE 6 kph)
- 10SM
19:53
Clear
52°F / 11°C 45°F / 7°C 77% 30.15 in
(1021 mb)
N 3.5 mph
(N 6 kph)
- 10SM
18:53
Clear
54°F / 12°C 46°F / 8°C 77% 30.12 in
(1020 mb)
Calm - 10SM
17:53
Clear
55°F / 13°C 45°F / 7°C 67% 30.12 in
(1020 mb)
N 3.5 mph
(N 6 kph)
- 10SM
16:53
Clear
63°F / 17°C 46°F / 8°C 56% 30.09 in
(1019 mb)
N 10.4 mph
(N 17 kph)
- 10SM
15:53
Clear
64°F / 18°C 45°F / 7°C 49% 30.09 in
(1019 mb)
N 15 mph
(N 24 kph)
- 10SM
14:53
Partly Cloudy
66°F / 19°C 45°F / 7°C 46% 30.09 in
(1019 mb)
N 12.7 mph
(N 20 kph)
- 10SM
13:53
Partly Cloudy
68°F / 20°C 46°F / 8°C 46% 30.09 in
(1019 mb)
N 11.5 mph
(N 19 kph)
- 10SM
12:53
Partly Cloudy
66°F / 19°C 46°F / 8°C 49% 30.06 in
(1018 mb)
N 9.2 mph
(N 15 kph)
- 10SM
11:53
Partly Cloudy
64°F / 18°C 46°F / 8°C 52% 30.09 in
(1019 mb)
NNW 11.5 mph
(NNW 19 kph)
- 10SM
10:53
Clear
64°F / 18°C 46°F / 8°C 52% 30.09 in
(1019 mb)
N 10.4 mph
(N 17 kph)
- 10SM
09:53
Clear
63°F / 17°C 46°F / 8°C 56% 30.09 in
(1019 mb)
N 9.2 mph
(N 15 kph)
- 10SM
08:53
Clear
61°F / 16°C 48°F / 9°C 63% 30.09 in
(1019 mb)
N 8.1 mph
(N 13 kph)
- 10SM
07:53
Clear
57°F / 14°C 50°F / 10°C 77% 30.09 in
(1019 mb)
N 5.8 mph
(N 9 kph)
- 10SM
06:53
Clear
52°F / 11°C 48°F / 9°C 88% 30.06 in
(1018 mb)
NW 3.5 mph
(NW 6 kph)
- 10SM
05:53
Clear
48°F / 9°C 46°F / 8°C 94% 30.04 in
(1017 mb)
Calm - 10SM
04:53
Clear
48°F / 9°C 46°F / 8°C 94% 30.04 in
(1017 mb)
Calm - 10SM
03:53
Clear
48°F / 9°C 46°F / 8°C 94% 30.01 in
(1016 mb)
Calm - 10SM
02:53
Clear
52°F / 11°C 48°F / 9°C 88% 30.01 in
(1016 mb)
Calm - 10SM
01:53
Clear
54°F / 12°C 48°F / 9°C 82% 30.01 in
(1016 mb)
NNW 3.5 mph
(NNW 6 kph)
- 10SM
00:53
Clear
55°F / 13°C 48°F / 9°C 77% 29.98 in
(1015 mb)
N 3.5 mph
(N 6 kph)
- 10SM
Time Weather Temperature Dewpoint Humidity Pressure Winds Precip Visibility


Weather for websites

WeatherForYou.com, LLC is not responsible for any damages or problems caused by this service. Current weather conditions are obtained from the closest station including government and personal stations which may have varying degrees of accuracy. Weather forecasts are derived from the NOAA NDFD. Like all things, this site belongs to Jesus Christ... He just trusts me to maintain it. If you have any questions or comments email webmaster@weatherforyou.com

Copyright © 2014, WeatherForYou.com LLC. All rights reserved.